Tiempo cada hora Barra de Santiago

Hoy, 8 Marzo, Lunes

Tiempo Temperatura Precipitaciones Viento Presión Humedad
00:00 +27°C° 0 mm 3 mps 762 mmHg 68%
01:00 +26°C° 0 mm 3 mps 761 mmHg 69%
02:00 +26°C° 0 mm 3 mps 761 mmHg 71%
03:00 +26°C° 0 mm 3 mps 761 mmHg 72%
04:00 +25°C° 0 mm 3 mps 761 mmHg 73%
05:00 +25°C° 0 mm 3 mps 761 mmHg 74%
06:00 +25°C° 0 mm 3 mps 761 mmHg 74%
07:00 +28°C° 0 mm 3 mps 762 mmHg 62%
08:00 +31°C° 0 mm 3 mps 762 mmHg 51%
09:00 +35°C° 0 mm 3 mps 763 mmHg 39%
10:00 +37°C° 0 mm 4 mps 762 mmHg 35%
11:00 +38°C° 0 mm 4 mps 761 mmHg 32%
12:00 +41°C° 0 mm 5 mps 761 mmHg 28%
13:00 +41°C° 0 mm 5 mps 760 mmHg 29%
14:00 +40°C° 0 mm 6 mps 760 mmHg 30%
15:00 +40°C° 0 mm 6 mps 759 mmHg 30%
16:00 +37°C° 0 mm 5 mps 759 mmHg 34%
17:00 +35°C° 0 mm 5 mps 760 mmHg 38%
18:00 +33°C° 0 mm 4 mps 760 mmHg 42%
19:00 +32°C° 0 mm 4 mps 761 mmHg 47%
20:00 +30°C° 0 mm 4 mps 762 mmHg 52%
21:00 +28°C° 0 mm 4 mps 762 mmHg 58%
22:00 +28°C° 0 mm 4 mps 762 mmHg 59%
23:00 +27°C° 0 mm 4 mps 762 mmHg 61%

Mañana, 9 Marzo, Martes

Tiempo Temperatura Precipitaciones Viento Presión Humedad
00:00 +27°C° 0 mm 4 mps 762 mmHg 63%
01:00 +26°C° 0 mm 4 mps 762 mmHg 64%
02:00 +26°C° 0 mm 3 mps 761 mmHg 65%
03:00 +26°C° 0 mm 3 mps 761 mmHg 66%
04:00 +26°C° 0 mm 3 mps 761 mmHg 67%
05:00 +25°C° 0 mm 3 mps 761 mmHg 68%
06:00 +25°C° 0 mm 4 mps 762 mmHg 69%
07:00 +28°C° 0 mm 4 mps 762 mmHg 59%
08:00 +32°C° 0 mm 4 mps 762 mmHg 49%
09:00 +35°C° 0 mm 4 mps 763 mmHg 39%
10:00 +36°C° 0 mm 4 mps 762 mmHg 36%
11:00 +39°C° 0 mm 5 mps 761 mmHg 32%
12:00 +40°C° 0 mm 5 mps 761 mmHg 29%
13:00 +40°C° 0 mm 5 mps 760 mmHg 29%
14:00 +40°C° 0 mm 4 mps 759 mmHg 28%
15:00 +40°C° 0 mm 4 mps 758 mmHg 28%
16:00 +37°C° 0 mm 4 mps 759 mmHg 32%
17:00 +36°C° 0 mm 5 mps 759 mmHg 36%
18:00 +34°C° 0 mm 5 mps 759 mmHg 40%
19:00 +32°C° 0 mm 4 mps 760 mmHg 44%
20:00 +30°C° 0 mm 4 mps 761 mmHg 49%
21:00 +28°C° 0 mm 4 mps 762 mmHg 54%
22:00 +28°C° 0 mm 4 mps 761 mmHg 55%
23:00 +28°C° 0 mm 3 mps 761 mmHg 57%

Pasado mañana, 10 Marzo, Miércoles

Tiempo Temperatura Precipitaciones Viento Presión Humedad
00:00 +28°C° 0 mm 3 mps 761 mmHg 58%
01:00 +27°C° 0 mm 3 mps 761 mmHg 61%
02:00 +27°C° 0 mm 3 mps 760 mmHg 63%
03:00 +26°C° 0 mm 3 mps 760 mmHg 66%
04:00 +26°C° 0 mm 4 mps 760 mmHg 67%
05:00 +25°C° 0 mm 4 mps 760 mmHg 68%
06:00 +25°C° 0 mm 4 mps 760 mmHg 70%
07:00 +28°C° 0 mm 3 mps 761 mmHg 59%
08:00 +31°C° 0 mm 3 mps 761 mmHg 49%
09:00 +35°C° 0 mm 3 mps 762 mmHg 39%
10:00 +36°C° 0 mm 3 mps 761 mmHg 35%
11:00 +38°C° 0 mm 4 mps 760 mmHg 32%
12:00 +41°C° 0 mm 4 mps 760 mmHg 28%
13:00 +41°C° 0 mm 4 mps 759 mmHg 28%
14:00 +41°C° 0 mm 4 mps 758 mmHg 28%
15:00 +40°C° 0 mm 3 mps 757 mmHg 29%
16:00 +37°C° 0 mm 3 mps 758 mmHg 38%
17:00 +34°C° 0 mm 2 mps 758 mmHg 48%
18:00 +30°C° 0 mm 2 mps 758 mmHg 58%
19:00 +29°C° 0 mm 2 mps 759 mmHg 57%
20:00 +28°C° 0 mm 3 mps 759 mmHg 55%
21:00 +27°C° 0 mm 3 mps 760 mmHg 54%
22:00 +27°C° 0 mm 3 mps 760 mmHg 54%
23:00 +27°C° 0 mm 3 mps 760 mmHg 53%

11 Marzo, Jueves

Tiempo Temperatura Precipitaciones Viento Presión Humedad
00:00 +27°C° 0 mm 3 mps 760 mmHg 53%
01:00 +27°C° 0 mm 3 mps 760 mmHg 57%
02:00 +26°C° 0 mm 3 mps 760 mmHg 62%
03:00 +25°C° 0 mm 3 mps 760 mmHg 66%
04:00 +25°C° 0 mm 3 mps 760 mmHg 67%
05:00 +24°C° 0 mm 3 mps 760 mmHg 68%
06:00 +24°C° 0 mm 3 mps 760 mmHg 69%
07:00 +28°C° 0 mm 2 mps 761 mmHg 57%
08:00 +31°C° 0 mm 2 mps 761 mmHg 44%
09:00 +34°C° 0 mm 1 mps 761 mmHg 32%
10:00 +36°C° 0 mm 2 mps 760 mmHg 32%
11:00 +37°C° 0 mm 4 mps 760 mmHg 31%
12:00 +37°C° 0 mm 5 mps 759 mmHg 31%
13:00 +37°C° 0 mm 5 mps 758 mmHg 33%
14:00 +37°C° 0 mm 4 mps 758 mmHg 36%
15:00 +36°C° 0 mm 4 mps 757 mmHg 38%
16:00 +34°C° 0 mm 3 mps 757 mmHg 46%
17:00 +32°C° 0 mm 2 mps 757 mmHg 54%
18:00 +30°C° 0 mm 2 mps 757 mmHg 61%
19:00 +29°C° 0 mm 2 mps 758 mmHg 65%
20:00 +28°C° 0 mm 2 mps 759 mmHg 69%
21:00 +27°C° 0 mm 2 mps 759 mmHg 73%
22:00 +27°C° 0 mm 2 mps 760 mmHg 72%
23:00 +27°C° 0 mm 2 mps 760 mmHg 71%

12 Marzo, Viernes

Tiempo Temperatura Precipitaciones Viento Presión Humedad
00:00 +26°C° 0 mm 2 mps 760 mmHg 70%
01:00 +27°C° 0 mm 2 mps 760 mmHg 70%
02:00 +27°C° 0 mm 2 mps 759 mmHg 70%
03:00 +27°C° 0 mm 2 mps 759 mmHg 70%
04:00 +26°C° 0 mm 2 mps 759 mmHg 71%
05:00 +26°C° 0 mm 2 mps 760 mmHg 72%
06:00 +26°C° 0 mm 2 mps 760 mmHg 73%
07:00 +29°C° 0 mm 2 mps 760 mmHg 62%
08:00 +32°C° 0 mm 1 mps 761 mmHg 51%
09:00 +35°C° 0 mm 1 mps 761 mmHg 40%
10:00 +37°C° 0 mm 2 mps 761 mmHg 38%
11:00 +38°C° 0 mm 4 mps 760 mmHg 36%
12:00 +40°C° 0 mm 5 mps 760 mmHg 34%
13:00 +38°C° 0 mm 4 mps 759 mmHg 37%
14:00 +37°C° 0 mm 4 mps 758 mmHg 40%
15:00 +36°C° 0 mm 3 mps 757 mmHg 44%
16:00 +34°C° 0 mm 3 mps 757 mmHg 51%
17:00 +33°C° 0 mm 3 mps 757 mmHg 58%
18:00 +30°C° 0 mm 2 mps 758 mmHg 65%
19:00 +29°C° 0 mm 2 mps 758 mmHg 69%
20:00 +27°C° 0 mm 3 mps 759 mmHg 74%
21:00 +26°C° 0 mm 3 mps 760 mmHg 79%
22:00 +26°C° 0 mm 3 mps 760 mmHg 73%
23:00 +26°C° 0 mm 3 mps 760 mmHg 68%

13 Marzo, Sábado

Tiempo Temperatura Precipitaciones Viento Presión Humedad
00:00 +27°C° 0 mm 3 mps 760 mmHg 63%
01:00 +26°C° 0 mm 2 mps 759 mmHg 65%
02:00 +26°C° 0 mm 2 mps 759 mmHg 68%
03:00 +26°C° 0 mm 2 mps 759 mmHg 71%
04:00 +26°C° 0 mm 2 mps 759 mmHg 70%
05:00 +26°C° 0 mm 2 mps 759 mmHg 70%
06:00 +25°C° 0 mm 2 mps 760 mmHg 70%
07:00 +28°C° 0 mm 2 mps 760 mmHg 59%
08:00 +31°C° 0 mm 1 mps 760 mmHg 47%
09:00 +34°C° 0 mm 1 mps 761 mmHg 36%
10:00 +36°C° 0 mm 2 mps 760 mmHg 36%
11:00 +37°C° 0 mm 4 mps 760 mmHg 36%
12:00 +39°C° 0 mm 5 mps 759 mmHg 37%
13:00 +37°C° 0 mm 5 mps 758 mmHg 42%
14:00 +36°C° 0 mm 4 mps 758 mmHg 47%
15:00 +35°C° 0 mm 4 mps 757 mmHg 52%
16:00 +33°C° 0 mm 3 mps 757 mmHg 59%
17:00 +31°C° 0 mm 3 mps 757 mmHg 65%
18:00 +30°C° 0 mm 2 mps 758 mmHg 71%
19:00 +28°C° 0 mm 2 mps 758 mmHg 76%
20:00 +27°C° 0 mm 2 mps 759 mmHg 81%
21:00 +26°C° 0 mm 3 mps 759 mmHg 86%
22:00 +26°C° 0 mm 2 mps 759 mmHg 85%
23:00 +26°C° 0 mm 2 mps 759 mmHg 84%
Mostrar más

Necesitamos Su Consentimiento

Meteoprog y nuestros Proveedores de Servicios pueden almacenar y acceder a sus datos personales como cookies, identificadores de dispositivo u otras tecnologías similares de su dispositivo y procesar dichos datos para personalizar contenido y anuncios, además de ofrecer funciones de redes sociales y analizar el tráfico.

  • Almacenar y/o acceder a información en su dispositivo

    Se puede almacenar o acceder a cookies, identificadores de dispositivo u otra información de su dispositivo para los fines anteriormente indicados.

  • Anuncios y contenido personalizados, medición de anuncios y contenido, percepciones del público, y desarrollo de productos

    Los anuncios y el contenido pueden personalizarse en base a su perfil. Se pueden añadir más datos para personalizar mejor los anuncios y contenidos. Se puede medir el rendimiento de los anuncios y contenidos. Se puede obtener la percepción sobre el público que ha visto los anuncios y contenidos. Dichos datos pueden usarse para desarrollar o mejorar la experiencia del usuario, sistemas y software.

Al hacer clic en ‘Estoy De Acuerdo’ usted permitirá el uso de las cookies, identificadores de dispositivo, balizas web u otras tecnologías similares indicadas. Su configuración puede cambiarse desde el navegador de su dispositivo.

Para ciertos fines, los intereses legítimos pueden ser considerados por encima del consentimiento. Puede leer más sobre ello en nuestra Política de Privacidad y Cookies.